STARLINK-32010, 60279

Orbit data source: Space-Track

STARLINK-32010, 60279 is a payload satellite in LEO that was launched on Sun, 28 Jul 2024 UTC via an FALCON 9 launch vehicle from the Air Force Eastern Test Range (AFETR). Payload-class satellites include a variety of spacecraft equipped with specific instruments for various scientific and technological missions. These include communications satellites like Starlink; space stations such as the ISS; scientific satellites like the Hubble; Earth observation satellites from companies like Planet Labs, Umbra, and HawkEye 360; GPS; miniature CubeSats for education and research; and military/defense satellites.

Loading next visibility...
Identifier
60279, 2024-132B
Orbit
LEO
Last TLE update
18 hours ago
Origin
Manufacturer
SpaceX/Seattle
Mission
Operational spacecraft
Bus & Motor
STARLINK V2M, Unknown motor
Mass
730 kg wet, ~700 kg dry
Launch date (UTC)
2024-07-28 (10 months ago)
Launch vehicle
FALCON 9
Launch site
Air Force Eastern Test Range (AFETR)
Object type
Payload
Rocket body
Debris
Shape & HBR
Unknown
Radar Cross Section
Large (>1 m²)

Expand to show TLE details & history

TLE from 18 hours ago
0 STARLINK-32010
1 60279U 24132B   25139.94966102 -.00000006  00000-0  11909-4 0  9994
2 60279  53.1606 337.0985 0001001  77.9715 282.1398 15.30187806 46585
Epoch: 2025-05-19T22:47Z
TLE epoch observation values (Epoch: 2025-05-19T22:47:30.712Z)
Latitude
Longitude
117.3656°
Altitude
476.007 km
Speed
7.629 km/s
True Right ascension
22h 28m 23s
True Declination
0° 00' 00"
Sunlit
Object was in daylight at epoch
Visualization orbit readout
Latitude
43.15322°
Longitude
-110.38023°
Altitude
479.007 km
Speed
7.632 km/s
Apparent Right ascension
10h 19m 51s
Apparent Declination
4° 58' 48"
Sunlit
Object is in daylight
Visualization observer readout
Local Sidereal Time
01:27:41
Azimuth
55.366° ENE
Elevation
-27.764°
Doppler factor
1
Orbital elements
Apogee altitude
476.194 km
Perigee altitude
474.822 km
Semi-major axis
6,853.645 km
Eccentricity
0.0001
Inclination
53.1606°
RAAN
337.0985°
Arg. of periapsis
77.9715°
True anomaly
Unknown
Mean anomaly
282.1398°
Eccentric anomaly
Unknown
Mean motion
3.82526 °/min
Orbital period
94.11 mins
BSTAR
0.000011909
Loading maneuver chart data...
Loading SW <> Apogee altitude chart data...
Loading historical data...
Loading historical data...
Loading historical data...
Loading historical data...
Loading historical data...
Loading historical data...
Loading historical data...

STARLINK-32010 Visibility forecast

Observer location: undefined°, undefined°

Span
Click to sort rows by Start time (UTC) header in descending order
Start Az.
Max El. time (UTC)
Max El. Az.
Max El.
End time (UTC)
End Az.
5 mins2025-05-20 21:10:49.108Z334.026° NNW2025-05-20 21:13:49.108Z29.314° NE19.497°2025-05-20 21:15:49.108Z67.886° E
5 mins2025-05-20 22:49:49.108Z301.266° NW2025-05-20 22:51:49.108Z226.206° WSW43.197°2025-05-20 22:54:49.108Z140.333° SSE
6 mins2025-05-21 15:44:49.108Z241.092° WSW2025-05-21 15:46:49.108Z273.129° WNW40.474°2025-05-21 15:50:49.108Z45.499° ENE
|